Weather History for Waseca, MN

Change the Weather History Date:

Thursday, December 27, 2012

  Actual Average Record
Temperature  
Mean Temperature 16 °F -  
Max Temperature 24 °F 22 °F 47 °F (1959)
Min Temperature 8 °F 3 °F -29 °F (1950)
Degree Days  
Heating Degree Days 49    
Moisture  
Dew Point 12 °F    
Average Humidity 75    
Maximum Humidity 80    
Minimum Humidity 67    
Precipitation  
Precipitation 0.00 in - - ()
Sea Level Pressure  
Sea Level Pressure 30.18 in    
Wind  
Wind Speed 5 mph (ENE)    
Max Wind Speed 10 mph    
Max Gust Speed -    
Visibility 7 miles    
Events Snow    
Averages and records for this station are not official NWS values.
T = Trace of Precipitation, MM = Missing Value Source: NWS Daily Summary

Daily Weather History Graph

Daily Weather History Graph

Search for Another Location

Airport:

Trip Planner

Search our weather history database for the weather conditions in past years. The results will help you decide how hot, cold, wet, or windy it might be!

Date:

Astronomy

Dec. 27, 2012 Rise Set
Actual Time 7:48 AM CST 4:42 PM CST
Civil Twilight 7:15 AM CST 5:15 PM CST
Nautical Twilight 6:38 AM CST 5:52 PM CST
Astronomical Twilight 6:03 AM CST 6:27 PM CST
Moon 4:27 PM CST (12/27) 6:58 AM CST (12/27)
Length of Visible Light 10h 00m
Length of Day
8h 54m
Full, 100% of the Moon is Illuminated
Dec 27
Full
Dec 28
Full
Jan 4
Last Quarter
Jan 11
New
Jan 18
First Quarter

Hourly Weather History & Observations

Time (CST) Temp. Windchill Dew Point Humidity Pressure Visibility Wind Dir Wind Speed Gust Speed Precip Events Conditions
12:14 AM 8.6 °F 0.1 °F 1.4 °F 73% 30.23 in 10.0 mi ENE 4.6 mph - N/A   Clear
12:34 AM 12.2 °F 4.3 °F 3.2 °F 67% 30.22 in 10.0 mi NE 4.6 mph - N/A   Clear
12:54 AM 10.4 °F - 1.4 °F 67% 30.23 in 10.0 mi Calm Calm - N/A   Clear
1:14 AM 8.6 °F - -0.4 °F 67% 30.23 in 10.0 mi Calm Calm - N/A   Clear
1:34 AM 10.4 °F - 3.2 °F 73% 30.23 in 10.0 mi Calm Calm - N/A   Clear
1:54 AM 10.4 °F - 3.2 °F 73% 30.23 in 10.0 mi Calm Calm - N/A   Clear
2:14 AM 10.4 °F - 1.4 °F 67% 30.23 in 10.0 mi Calm Calm - N/A   Clear
2:34 AM 10.4 °F 4.0 °F 3.2 °F 73% 30.23 in 10.0 mi ENE 3.5 mph - N/A   Clear
2:54 AM 12.2 °F - 5.0 °F 73% 30.23 in 10.0 mi Calm Calm - N/A   Clear
3:14 AM 12.2 °F 6.1 °F 5.0 °F 73% 30.23 in 10.0 mi East 3.5 mph - N/A   Scattered Clouds
3:54 AM 14.0 °F 3.9 °F 6.8 °F 73% 30.22 in 10.0 mi East 6.9 mph - N/A   Scattered Clouds
4:14 AM 14.0 °F 5.1 °F 6.8 °F 73% 30.21 in 10.0 mi East 5.8 mph - N/A   Scattered Clouds
4:34 AM 14.0 °F 5.1 °F 5.0 °F 67% 30.21 in 10.0 mi ENE 5.8 mph - N/A   Clear
4:54 AM 12.2 °F 4.3 °F 3.2 °F 67% 30.21 in 10.0 mi East 4.6 mph - N/A   Clear
5:33 AM 12.2 °F 4.3 °F 5.0 °F 73% 30.21 in 10.0 mi East 4.6 mph - N/A   Clear
5:54 AM 12.2 °F 6.1 °F 5.0 °F 73% 30.21 in 10.0 mi East 3.5 mph - N/A   Clear
6:14 AM 12.2 °F - 5.0 °F 73% 30.21 in 10.0 mi Calm Calm - N/A   Clear
6:34 AM 12.2 °F 2.9 °F 5.0 °F 73% 30.20 in 10.0 mi East 5.8 mph - N/A   Clear
6:54 AM 12.2 °F 2.9 °F 5.0 °F 73% 30.20 in 10.0 mi ENE 5.8 mph - N/A   Clear
7:14 AM 10.4 °F 2.2 °F 3.2 °F 73% 30.20 in 10.0 mi East 4.6 mph - N/A   Clear
7:34 AM 10.4 °F 2.2 °F 3.2 °F 73% 30.21 in 10.0 mi East 4.6 mph - N/A   Clear
7:53 AM 10.4 °F - 5.0 °F 79% 30.21 in 10.0 mi Calm Calm - N/A   Clear
8:14 AM 12.2 °F 4.3 °F 5.0 °F 73% 30.21 in 10.0 mi ENE 4.6 mph - N/A   Clear
8:34 AM 14.0 °F 6.5 °F 6.8 °F 73% 30.21 in 10.0 mi East 4.6 mph - N/A   Scattered Clouds
8:54 AM 14.0 °F 8.2 °F 8.6 °F 79% 30.22 in 10.0 mi East 3.5 mph - N/A   Mostly Cloudy
9:14 AM 14.0 °F 3.9 °F 8.6 °F 79% 30.21 in 10.0 mi East 6.9 mph - N/A   Overcast
9:33 AM 15.8 °F 5.1 °F 8.6 °F 73% 30.21 in 10.0 mi East 8.1 mph - N/A   Overcast
9:54 AM 17.6 °F 10.7 °F 10.4 °F 73% 30.22 in 10.0 mi East 4.6 mph - N/A   Mostly Cloudy
10:14 AM 19.4 °F 11.5 °F 12.2 °F 74% 30.21 in 10.0 mi East 5.8 mph - N/A   Mostly Cloudy
10:34 AM 19.4 °F 14.3 °F 12.2 °F 74% 30.23 in 10.0 mi ESE 3.5 mph - N/A   Mostly Cloudy
10:54 AM 19.4 °F 14.3 °F 12.2 °F 74% 30.23 in 10.0 mi ESE 3.5 mph - N/A   Overcast
11:13 AM 19.4 °F 14.3 °F 12.2 °F 74% 30.22 in 10.0 mi ESE 3.5 mph - N/A   Overcast
11:34 AM 21.2 °F 14.9 °F 12.2 °F 68% 30.23 in 10.0 mi SSW 4.6 mph - N/A   Overcast
11:54 AM 21.2 °F - 12.2 °F 68% 30.21 in 10.0 mi Calm Calm - N/A   Overcast
12:14 PM 23.0 °F 17.0 °F 14.0 °F 68% 30.20 in 10.0 mi East 4.6 mph - N/A   Overcast
12:34 PM 23.0 °F 15.8 °F 14.0 °F 68% 30.18 in 10.0 mi East 5.8 mph - N/A   Overcast
12:54 PM 23.0 °F 17.0 °F 14.0 °F 68% 30.18 in 10.0 mi East 4.6 mph - N/A   Overcast
1:14 PM 23.0 °F 14.7 °F 14.0 °F 68% 30.17 in 10.0 mi East 6.9 mph - N/A   Overcast
1:34 PM 23.0 °F 14.7 °F 14.0 °F 68% 30.16 in 10.0 mi East 6.9 mph - N/A   Overcast
1:53 PM 24.8 °F 16.1 °F 15.8 °F 69% 30.15 in 10.0 mi East 8.1 mph - N/A   Overcast
2:14 PM 24.8 °F 14.6 °F 17.6 °F 74% 30.14 in 5.0 mi East 10.4 mph - N/A Snow Light Snow
2:34 PM 24.8 °F 16.1 °F 17.6 °F 74% 30.14 in 4.0 mi East 8.1 mph - N/A Snow Light Snow
2:54 PM 24.8 °F 16.1 °F 17.6 °F 74% 30.14 in 1.0 mi ENE 8.1 mph - N/A Snow Light Snow
3:13 PM 24.8 °F 16.9 °F 19.4 °F 80% 30.14 in 1.2 mi ENE 6.9 mph - N/A Snow Light Snow
3:34 PM 23.0 °F 12.4 °F 17.6 °F 80% 30.14 in 1.2 mi East 10.4 mph - N/A Snow Light Snow
3:54 PM 23.0 °F 12.4 °F 17.6 °F 80% 30.14 in 1.2 mi East 10.4 mph - N/A Snow Light Snow
4:14 PM 23.0 °F 13.1 °F 17.6 °F 80% 30.13 in 1.0 mi ENE 9.2 mph - N/A Snow Light Snow
4:34 PM 23.0 °F 13.9 °F 17.6 °F 80% 30.13 in 1.0 mi ENE 8.1 mph - N/A Snow Light Snow
4:54 PM 23.0 °F 13.9 °F 17.6 °F 80% 30.13 in 1.8 mi ENE 8.1 mph - N/A Snow Light Snow
5:14 PM 23.0 °F 14.7 °F 17.6 °F 80% 30.13 in 3.0 mi ENE 6.9 mph - N/A Snow Light Snow
5:34 PM 23.0 °F 13.1 °F 17.6 °F 80% 30.13 in 3.0 mi ENE 9.2 mph - N/A Snow Light Snow
5:54 PM 23.0 °F 13.1 °F 17.6 °F 80% 30.13 in 3.0 mi ENE 9.2 mph - N/A Snow Light Snow
6:14 PM 23.0 °F 12.4 °F 17.6 °F 80% 30.13 in 3.0 mi ENE 10.4 mph - N/A Snow Light Snow
6:34 PM 23.0 °F 12.4 °F 17.6 °F 80% 30.13 in 2.0 mi ENE 10.4 mph - N/A Snow Light Snow
6:54 PM 23.0 °F 13.1 °F 17.6 °F 80% 30.13 in 3.0 mi ENE 9.2 mph - N/A Snow Light Snow
7:14 PM 23.0 °F 13.1 °F 17.6 °F 80% 30.13 in 5.0 mi ENE 9.2 mph - N/A Snow Light Snow
7:34 PM 23.0 °F 13.9 °F 17.6 °F 80% 30.13 in 5.0 mi ENE 8.1 mph - N/A Snow Light Snow
7:54 PM 23.0 °F 14.7 °F 17.6 °F 80% 30.13 in 3.0 mi ENE 6.9 mph - N/A Snow Light Snow
8:14 PM 23.0 °F 13.9 °F 17.6 °F 80% 30.13 in 2.0 mi ENE 8.1 mph - N/A Snow Light Snow
8:34 PM 23.0 °F 13.1 °F 17.6 °F 80% 30.12 in 2.0 mi NE 9.2 mph - N/A Snow Light Snow
8:54 PM 23.0 °F 13.9 °F 17.6 °F 80% 30.12 in 1.5 mi ENE 8.1 mph - N/A Snow Light Snow
9:14 PM 23.0 °F 13.9 °F 17.6 °F 80% 30.12 in 2.0 mi ENE 8.1 mph - N/A Snow Light Snow
9:34 PM 23.0 °F 13.9 °F 17.6 °F 80% 30.12 in 3.0 mi ENE 8.1 mph - N/A Snow Light Snow
9:53 PM 23.0 °F 13.9 °F 17.6 °F 80% 30.12 in 2.5 mi ENE 8.1 mph - N/A Snow Light Snow
10:14 PM 23.0 °F 14.7 °F 17.6 °F 80% 30.12 in 1.5 mi ENE 6.9 mph - N/A Snow Light Snow
10:34 PM 23.0 °F 13.9 °F 17.6 °F 80% 30.12 in 2.0 mi NE 8.1 mph - N/A Snow Light Snow
10:54 PM 23.0 °F 15.8 °F 17.6 °F 80% 30.12 in 2.5 mi NE 5.8 mph - N/A Snow Light Snow
11:34 PM 23.0 °F 14.7 °F 17.6 °F 80% 30.11 in 5.0 mi NE 6.9 mph - N/A Snow Light Snow
11:54 PM 23.0 °F 14.7 °F 17.6 °F 80% 30.11 in 5.0 mi ENE 6.9 mph - N/A Snow Light Snow